Погода на Островах Мадлен

Канада     48°54′50″N   65°00′08″W
темп.,
°C
ветер,
м/с
пор.,
м/с
влажн.,
%
обл.,
%
осадки,
мм/ч
давл.,
гПа
погр.,
м
26 февраля, пт
пт2601:00−17сз81792100 0.5 1009813
04:00−18сз81792100 0.1 1012853
07:00−18сз71692100 0.3 1015841
10:00−16сз8149199 0.1 1019810
13:00−14зсз7138782 0.1 1020822
16:00−14сз513860 0.0 1023725
19:00−19зюз12870 0.0 102620
22:00−19ююз238533 0.0 102732
27 февраля, сб
сб2701:00−17ююз239049 0.0 102640
04:00−14ююз378868 0.0 1026167
07:00−14ююз3119484 0.0 1025302
10:00−6ююз41289100 0.0 1023466
13:00−3юз7148483 0.0 1021643
16:00−3ююз6148985 0.0 1018880
19:00−3ююз3119792 0.3 1017716
22:00−3ююз3109699 0.3 1015501
28 февраля, вс
вс2801:00−3з1198100 0.5 101426
04:00−5зсз229795 0.1 101538
07:00−5сз269790 0.1 1018220
10:00−1ссз359937 0.0 1020545
13:00−1с119866 0.1 1020337
16:00−1в1297100 0.1 1019230
19:00−4юв3699100 0.1 1018215
22:00−4ююв61395100 0.1 1014657
1 марта, пн
пн101:00−4ююв102192100 0.3 10061173
04:00−3ююв101992100 2.8 9991009
07:00+1юз8179798 3.5 9951313
10:000зюз6139534 0.1 9931216
13:000зюз41010033 0.2 9921386
16:00−3зсз388834 0.3 992974
19:00−12зсз3109145 0.3 996392
22:00−16зсз7178764 0.0 997662
2 марта, вт
вт201:00−20зсз6159039 0.0 998676
04:00−23зсз616916 0.1 998742
07:00−20зсз8169351 0.2 9991005
10:00−19зсз101792100 0.3 10011061
13:00−17зсз101792100 0.6 1002944
16:00−18зсз101991100 0.1 1004860
19:00−18сз9199196 0.3 1007814
22:00−18зсз71793100 0.1 1007729